Regional Weather Roundup
Issued by NWS

Home | Current Version | Previous Version | Graphics & Text | Print | Product List | Glossary Off
Versions: 1 2 3 4 5 6 7 8 9 10 11 12 13 14 15 16 17 18 19 20 21 22 23 24 25 26 27 28 29 30 31 32 33 34 35 36 37 38 39 40 41 42 43 44 45 46 47 48 49 50

912
ASUS43 KDMX 172106
RWRIA

WEATHER ROUNDUP FOR IOWA
NATIONAL WEATHER SERVICE DES MOINES IA
300 PM CST SUN DEC 17 2017

NOTE: "FAIR" INDICATES FEW OR NO CLOUDS BELOW 12,000 FEET WITH NO
SIGNIFICANT WEATHER AND/OR OBSTRUCTIONS TO VISIBILITY.

* - THESE STATIONS ARE NOT NWS STATIONS...THUS NOT UNDER NWS
QUALITY CONTROL.  THEY ALSO DO NOT REPORT WEATHER SUCH
AS PRECIPITATION OR FOG.

IAZ001>003-012>014-020>022-031>034-043>046-172200-
   NORTHWEST IOWA

CITY           SKY/WX    TMP DP  RH WIND       PRES   REMARKS
CARROLL *      CLOUDY    30  27  86 NE8       29.95S WCI  23
CHEROKEE *     CLOUDY    34  29  80 N8        29.96S HAZE    WCI  27
LE MARS *      CLOUDY    34  28  80 VRB5      29.96F WCI  30
ORANGE CITY *  MOSUNNY   34  32  93 N5        29.95F WCI  30
SHELDON *      CLOUDY    32  28  86 N5        29.94F WCI  27
SIOUX CITY     CLOUDY    35  28  75 NW8       29.97F WCI  29
SPENCER        CLOUDY    33  26  75 N7        29.95F WCI  27
STORM LAKE *   CLOUDY    32  28  86 N5        29.94S WCI  27
$$

IAZ055>058-069>071-079>083-090>094-172200-
   SOUTHWEST IOWA

CITY           SKY/WX    TMP DP  RH WIND       PRES   REMARKS
ATLANTIC *     CLOUDY    37  28  70 CALM      29.95S
AUDUBON *      CLOUDY    36  27  69 CALM      29.95S
CLARINDA *     CLOUDY    37  36  93 NW7         N/A  WCI  32
COUNCIL BLFS * MOSUNNY   36  32  87 VRB3      29.95F
CRESTON *      CLOUDY    37  34  87 NW6       29.95R WCI  33
HARLAN  *      MOSUNNY   36  28  75 VRB5      29.98S WCI  32
LAMONI         CLOUDY    43  40  89 NW10      29.95R
RED OAK *      PTSUNNY   37  32  81 NW5       29.96F WCI  34
SHENANDOAH *   CLOUDY    36  32  87 NE7       29.96F WCI  30
$$

IAZ047>049-059>061-072>074-084-172200-
   CENTRAL IOWA

CITY           SKY/WX    TMP DP  RH WIND       PRES   REMARKS
AMES           CLOUDY    38  30  73 CALM      29.95R
ANKENY *       CLOUDY    37  30  75 NW6       29.96F WCI  33
BOONE *        CLOUDY    37  30  75 NE3       29.93S HAZE
CHARITON *     CLOUDY    39  37  93 CALM      29.94S
DES MOINES     CLOUDY    37  31  78 NW6       29.95S WCI  32
GRINNELL*      CLOUDY    39  32  77 CALM      29.94F
KNOXVILLE *    CLOUDY    39  36  87 CALM      29.93F
MARSHALLTOWN   CLOUDY    38  30  73 N3        29.94R
NEWTON *       CLOUDY    37  34  87 W6        29.94S WCI  33
PELLA *        MOSUNNY   38  35  90 SW3       29.96S
PERRY *        CLOUDY    36  27  70 NW5       29.94F WCI  32
$$

IAZ004>006-015-016-023>025-035-036-172200-
   NORTH CENTRAL IOWA

CITY           SKY/WX    TMP DP  RH WIND       PRES   REMARKS
ALGONA *       CLOUDY    32  30  93 E6        29.95S WCI  26
CLARION *      CLOUDY    32  32 100 NE7       29.95S FOG     WCI  26
ESTHERVILLE    CLOUDY    31  26  82 NE5       29.94F WCI  26
FORT DODGE *   CLOUDY    32  28  85 N3        29.96R
MASON CITY     CLOUDY    28  27  96 NE3       29.96F FOG
FOREST CITY *  CLOUDY    30  30 100 CALM      29.94F FOG
WEBSTER CITY * CLOUDY    34  28  80 VRB3      29.93R
IOWA FALLS *   CLOUDY    34  30  85 E3        29.94F
$$

IAZ007>011-017>019-026>030-037>042-050>054-066-172200-
   NORTHEAST IOWA

CITY           SKY/WX    TMP DP  RH WIND       PRES   REMARKS
CEDAR RAPIDS   CLOUDY    39  31  72 CALM      29.94S HAZE
CLINTON *      CLOUDY    42  31  64 CALM      29.97R
DECORAH *      CLOUDY    32  30  93 CALM      29.95F FOG
DUBUQUE        CLOUDY    34  30  85 CALM      29.96F FOG
MONTICELLO *   CLOUDY    37  32  81 CALM      29.96R HAZE
OELWEIN *      CLOUDY    36  34  93 SE6       29.95R FOG     WCI  31
WATERLOO       CLOUDY    35  30  82 E5        29.95S HAZE    WCI  31
$$

IAZ064-065-067-068-078-172200-
   EAST CENTRAL IOWA

CITY           SKY/WX    TMP DP  RH WIND       PRES   REMARKS
DAVENPORT      CLOUDY    42  31  64 W9        29.98R
IOWA CITY      CLOUDY    40  34  79 CALM      29.97F
MT. PLEASANT * CLOUDY    43  42  97 CALM      29.95F
MUSCATINE *    CLOUDY    43  34  70 CALM      29.97F
QUAD CITIES    CLOUDY    45  32  60 W8        29.96S
$$

IAZ062-063-075>077-085>089-095>099-172200-
   SOUTHEAST IOWA

CITY           SKY/WX    TMP DP  RH WIND       PRES   REMARKS
BURLINGTON     CLOUDY    44  40  85 CALM      29.96S
FAIRFIELD *    CLOUDY    41  39  93 NW5       29.95S
FORT MADISON * CLOUDY    45  41  87 CALM      29.96F
KEOKUK *       CLOUDY    48  39  71 S7        29.95F
OSKALOOSA *    CLOUDY    39  36  89 W3        29.97S FOG
OTTUMWA        CLOUDY    40  38  93 NW3       29.96S FOG
WASHINGTON *     N/A     39  39 100 CALM      29.97S
$$

ABBREVIATIONS USED IN REMARKS
   TC - TEMPERATURES IN CELSIUS
  WCI - WIND CHILL INDEX
   HX - HEAT INDEX
  VSB - VISIBILITY
$$





USA.gov is the U.S. government's official web portal to all federal, state and local government web resources and services.